Date String (YYYY-MM-DD hh:mm:ss) UTC,Instrument flags,absolute air pressure of the measurement (hPa),sample flow rate (lpm),inlet stack bypass flow (lpm),air temperature of the measurement (°C),ambient temperature measured by the external sensor (°C),aerosol sample conditioner tube jacket temperature (°C),OPC LED temperature (°C),internal box temperature (°C),relative humidity of the measurement (%),span deviation,mass concentration of particles derived from Lorenz-Mie calculation of OPC scattering (μg/m³),mass concentration of particles derived from Lorenz-Mie calculation of OPC scattering (μg/m³),mass concentration of particles derived from Lorenz-Mie calculation of OPC scattering (μg/m³)
DateTimeUTC,F1_M11,P_M11,Q1_M11,Q2_M11,T1_M11,T2_M11,T3_M11,T4_M11,T5_M11,U1_M11,ZSPAN_M11,X2_M11,X0_M11,X1_M11
2024-02-21 04:00:00,SystemResetWarning,0828.7,5.00,000.00,025.4,024.6,000.0,033.9,027.1,14.7,0000.0,0000.56,0000.97,0000.44
2024-02-21 04:01:00,SystemResetWarning,0828.7,5.00,000.00,025.3,024.6,000.0,033.9,027.1,14.7,0000.0,0000.56,0000.96,0000.43
2024-02-21 04:02:00,SystemResetWarning,0828.7,5.00,000.00,025.3,024.6,000.0,033.9,027.1,14.7,0000.0,0000.55,0000.95,0000.43
2024-02-21 04:03:00,SystemResetWarning,0828.8,5.00,000.00,025.3,024.6,000.0,033.9,027.1,14.8,0000.0,0000.55,0000.94,0000.43
2024-02-21 04:04:00,SystemResetWarning,0828.8,5.00,000.00,025.3,024.6,000.0,033.9,027.1,14.8,0000.0,0000.55,0000.95,0000.43
2024-02-21 04:05:00,SystemResetWarning,0828.8,5.00,000.00,025.3,024.6,000.0,033.9,027.1,14.8,0000.0,0000.55,0000.96,0000.42
2024-02-21 04:06:00,SystemResetWarning,0828.7,5.01,000.00,025.3,024.6,000.0,033.9,027.1,14.8,0000.0,0000.55,0000.98,0000.42
2024-02-21 04:07:00,SystemResetWarning,0828.7,5.00,000.00,025.3,024.6,000.0,033.8,027.1,14.8,0000.0,0000.56,0001.03,0000.42
2024-02-21 04:08:00,SystemResetWarning,0828.8,5.00,000.00,025.3,024.6,000.0,033.8,027.1,14.8,0000.0,0000.57,0000.97,0000.42
2024-02-21 04:09:00,SystemResetWarning,0828.9,5.00,000.00,025.3,024.6,000.0,033.8,027.1,14.9,0000.0,0000.59,0001.04,0000.43
2024-02-21 04:10:00,SystemResetWarning,0828.9,5.00,000.00,025.3,024.6,000.0,033.8,027.1,14.9,0000.0,0000.61,0000.98,0000.44
2024-02-21 04:11:00,SystemResetWarning,0828.9,5.00,000.00,025.3,024.6,000.0,033.8,027.1,14.9,0000.0,0000.62,0001.00,0000.45
2024-02-21 04:12:00,SystemResetWarning,0828.8,5.00,000.00,025.3,024.5,000.0,033.8,027.1,14.9,0000.0,0000.63,0001.02,0000.46
2024-02-21 04:13:00,SystemResetWarning,0828.8,5.00,000.00,025.3,024.5,000.0,033.8,027.1,14.9,0000.0,0000.69,0001.14,0000.46
2024-02-21 04:14:00,SystemResetWarning,0828.8,5.00,000.00,025.2,024.5,000.0,033.8,027.0,14.9,0000.0,0000.71,0002.87,0000.47
2024-02-21 04:15:00,SystemResetWarning,0828.8,5.00,000.00,025.2,024.5,000.0,033.8,027.0,14.8,0000.0,0000.72,0003.03,0000.47
2024-02-21 04:16:00,SystemResetWarning,0828.8,5.00,000.00,025.2,024.4,000.0,033.8,027.0,14.9,0000.0,0000.73,0003.06,0000.47
2024-02-21 04:17:00,SystemResetWarning,0828.7,5.00,000.00,025.2,024.4,000.0,033.8,026.9,14.9,0000.0,0000.73,0003.03,0000.48
2024-02-21 04:18:00,SystemResetWarning,0828.8,5.01,000.00,025.2,024.4,000.0,033.7,026.9,14.9,0000.0,0000.72,0003.04,0000.47
2024-02-21 04:19:00,SystemResetWarning,0828.9,5.01,000.00,025.2,024.4,000.0,033.7,026.9,14.9,0000.0,0000.77,0003.21,0000.47
2024-02-21 04:20:00,SystemResetWarning,0828.9,5.00,000.00,025.1,024.4,000.0,033.7,026.9,15.0,0000.0,0000.74,0003.71,0000.47
2024-02-21 04:21:00,SystemResetWarning,0828.9,5.00,000.00,025.1,024.4,000.0,033.7,026.9,15.0,0000.0,0000.71,0004.68,0000.47
2024-02-21 04:22:00,SystemResetWarning,0828.9,5.00,000.00,025.1,024.4,000.0,033.7,026.9,15.0,0000.0,0000.71,0004.67,0000.47
2024-02-21 04:23:00,SystemResetWarning,0828.9,5.00,000.00,025.1,024.4,000.0,033.7,026.9,15.0,0000.0,0000.73,0004.71,0000.48
2024-02-21 04:24:00,SystemResetWarning,0829.0,5.00,000.00,025.1,024.4,000.0,033.7,026.9,15.0,0000.0,0000.71,0004.87,0000.48
2024-02-21 04:25:00,SystemResetWarning,0828.9,5.00,000.00,025.1,024.4,000.0,033.7,026.9,15.0,0000.0,0000.67,0003.71,0000.48
2024-02-21 04:26:00,SystemResetWarning,0828.9,5.00,000.00,025.1,024.4,000.0,033.6,026.9,15.0,0000.0,0000.67,0002.95,0000.48
2024-02-21 04:27:00,SystemResetWarning,0828.9,5.00,000.00,025.1,024.4,000.0,033.6,026.9,15.0,0000.0,0000.67,0002.91,0000.49
2024-02-21 04:28:00,SystemResetWarning,0828.9,5.00,000.00,025.1,024.4,000.0,033.6,026.9,15.0,0000.0,0000.67,0002.91,0000.49
2024-02-21 04:29:00,SystemResetWarning,0829.0,4.98,000.00,025.1,024.4,000.0,033.6,026.9,15.0,0000.0,0000.67,0002.92,0000.50
2024-02-21 04:30:00,SystemResetWarning,0829.0,5.00,000.00,025.1,024.4,000.0,033.6,026.9,15.0,0000.0,0000.64,0002.90,0000.51
2024-02-21 04:31:00,SystemResetWarning,0829.0,5.01,000.00,025.1,024.4,000.0,033.6,026.9,15.0,0000.0,0000.65,0003.23,0000.51
2024-02-21 04:32:00,SystemResetWarning,0828.9,5.00,000.00,025.1,024.4,000.0,033.6,026.9,15.1,0000.0,0000.65,0001.59,0000.52
2024-02-21 04:33:00,SystemResetWarning,0828.9,5.00,000.00,025.1,024.4,000.0,033.6,026.9,15.1,0000.0,0000.64,0001.56,0000.51
2024-02-21 04:34:00,SystemResetWarning,0829.0,5.00,000.00,025.1,024.4,000.0,033.6,026.9,15.1,0000.0,0000.62,0001.52,0000.51
2024-02-21 04:35:00,SystemResetWarning,0829.0,5.00,000.00,025.1,024.4,000.0,033.6,026.9,15.0,0000.0,0000.60,0001.30,0000.51
2024-02-21 04:36:00,SystemResetWarning,0829.0,5.00,000.00,025.1,024.4,000.0,033.6,026.9,15.0,0000.0,0000.61,0001.29,0000.51
2024-02-21 04:37:00,SystemResetWarning,0829.0,4.99,000.00,025.1,024.4,000.0,033.6,026.9,15.1,0000.0,0000.61,0001.29,0000.52
2024-02-21 04:38:00,SystemResetWarning,0829.0,4.99,000.00,025.1,024.4,000.0,033.6,026.9,15.0,0000.0,0000.61,0001.30,0000.52
2024-02-21 04:39:00,SystemResetWarning,0829.0,5.01,000.00,025.1,024.4,000.0,033.6,026.9,15.1,0000.0,0000.62,0001.40,0000.52
2024-02-21 04:40:00,SystemResetWarning,0828.9,5.01,000.00,025.1,024.4,000.0,033.6,026.9,15.1,0000.0,0000.62,0001.43,0000.51
2024-02-21 04:41:00,SystemResetWarning,0828.9,4.99,000.00,025.1,024.4,000.0,033.6,026.9,15.0,0000.0,0000.61,0001.31,0000.50
2024-02-21 04:42:00,SystemResetWarning,0829.0,4.99,000.00,025.1,024.4,000.0,033.6,026.9,15.0,0000.0,0000.60,0000.94,0000.50
2024-02-21 04:43:00,SystemResetWarning,0829.0,5.00,000.00,025.1,024.4,000.0,033.6,026.9,15.0,0000.0,0000.60,0000.94,0000.50
2024-02-21 04:44:00,SystemResetWarning,0828.9,5.00,000.00,025.1,024.4,000.0,033.6,026.9,15.0,0000.0,0000.61,0001.05,0000.51
2024-02-21 04:45:00,SystemResetWarning,0828.9,5.02,000.00,025.1,024.4,000.0,033.6,026.9,15.1,0000.0,0000.61,0001.06,0000.51
2024-02-21 04:46:00,SystemResetWarning,0828.9,5.00,000.00,025.1,024.4,000.0,033.6,026.9,15.1,0000.0,0000.63,0001.11,0000.51
2024-02-21 04:47:00,SystemResetWarning,0828.9,5.00,000.00,025.1,024.4,000.0,033.6,026.9,15.1,0000.0,0000.63,0001.11,0000.51
2024-02-21 04:48:00,SystemResetWarning,0828.9,4.99,000.00,025.1,024.4,000.0,033.6,026.9,15.0,0000.0,0000.64,0001.11,0000.50
2024-02-21 04:49:00,SystemResetWarning,0829.0,4.99,000.00,025.1,024.4,000.0,033.6,027.0,15.0,0000.0,0000.63,0001.10,0000.50
2024-02-21 04:50:00,SystemResetWarning,0829.0,5.00,000.00,025.1,024.4,000.0,033.6,027.0,15.0,0000.0,0000.62,0001.00,0000.50
2024-02-21 04:51:00,SystemResetWarning,0829.0,5.00,000.00,025.1,024.4,000.0,033.6,027.0,15.0,0000.0,0000.63,0000.97,0000.51
2024-02-21 04:52:00,SystemResetWarning,0829.0,5.00,000.00,025.1,024.4,000.0,033.6,027.0,15.0,0000.0,0000.64,0001.05,0000.51
2024-02-21 04:53:00,SystemResetWarning,0829.0,5.01,000.00,025.1,024.4,000.0,033.6,027.0,15.0,0000.0,0000.65,0001.17,0000.50
2024-02-21 04:54:00,SystemResetWarning,0829.0,5.00,000.00,025.1,024.5,000.0,033.6,027.0,15.0,0000.0,0000.65,0001.18,0000.50
2024-02-21 04:55:00,SystemResetWarning,0828.9,5.00,000.00,025.1,024.5,000.0,033.6,027.0,14.9,0000.0,0000.67,0001.17,0000.50
2024-02-21 04:56:00,SystemResetWarning,0828.9,5.00,000.00,025.1,024.5,000.0,033.6,027.0,14.9,0000.0,0000.68,0001.21,0000.50
2024-02-21 04:57:00,SystemResetWarning,0829.0,5.01,000.00,025.2,024.5,000.0,033.6,027.0,14.9,0000.0,0000.70,0001.27,0000.51
2024-02-21 04:58:00,SystemResetWarning,0828.9,5.00,000.00,025.2,024.5,000.0,033.6,027.1,14.9,0000.0,0000.73,0001.32,0000.51
2024-02-21 04:59:00,SystemResetWarning,0829.0,5.00,000.00,025.2,024.5,000.0,033.6,027.0,14.9,0000.0,0000.71,0001.30,0000.50
